Simultaneous Nadir Overpasses (SNOs) Predictions

Prediction of SNOs between NOAA-15 and METOP-C Satellite Orbit:

Table of predicted SNOs for the next 14.0 days since TLE Epoch: 9/16/2023
Index Date (NOAA-15) Time (NOAA-15) Lat,Lon (NOAA-15) SZA (NOAA-15 ) Date (METOP-C) Time (METOP-C) Lat,Lon (METOP-C) SZA (METOP-C ) Distance(km) Time Diff (sec)
1 09/17/2023 06:41:05 81.10, 117.67 80.76 09/17/2023 06:39:51 81.09, 117.80 80.74 2.49 74
2 09/17/2023 07:31:38 -81.10, -75.02 99.23 09/17/2023 07:30:31 -81.09, -74.88 99.25 2.75 67
3 09/17/2023 08:22:05 81.09, 92.68 80.81 09/17/2023 08:21:12 81.10, 92.64 80.79 1.35 53
4 09/17/2023 09:12:38 -81.09,-100.00 99.19 09/17/2023 09:11:52 -81.10,-100.04 99.20 1.05 46
5 09/17/2023 10:03:06 81.09, 67.33 80.83 09/17/2023 10:02:33 81.10, 67.48 80.84 2.94 33
6 09/17/2023 10:53:39 -81.09,-125.35 99.16 09/17/2023 10:53:13 -81.10,-125.20 99.15 2.82 26
7 09/17/2023 11:44:07 81.10, 41.97 80.85 09/17/2023 11:43:55 81.10, 41.94 80.84 0.49 12
8 09/17/2023 12:34:40 -81.10,-150.70 99.14 09/17/2023 12:34:35 -81.09,-150.74 99.15 0.58 5
9 09/17/2023 13:25:08 81.10, 16.62 80.87 09/17/2023 13:25:16 81.10, 16.78 80.89 2.89 8
10 09/17/2023 14:15:41 -81.10,-176.06 99.12 09/17/2023 14:15:56 -81.10,-175.90 99.10 2.74 15
11 09/17/2023 15:06:09 81.10, -8.74 80.89 09/17/2023 15:06:38 81.09, -8.75 80.90 1.05 29
12 09/17/2023 15:56:42 -81.11, 158.59 99.10 09/17/2023 15:57:18 -81.09, 158.57 99.10 1.28 36
13 09/17/2023 16:47:09 81.11, -34.10 80.91 09/17/2023 16:47:58 81.10, -33.91 80.95 3.24 49
14 09/17/2023 17:37:42 -81.11, 133.24 99.08 09/17/2023 17:38:38 -81.10, 133.41 99.05 3.02 56
15 09/17/2023 18:28:09 81.10, -59.08 80.96 09/17/2023 18:29:19 81.11, -59.07 81.00 1.31 70



Historial Predications of SNOs between NOAA-15 and METOP-C
